MDT,Max TemperatureF,Mean TemperatureF,Min TemperatureF,Max Dew PointF,MeanDew PointF,Min DewpointF,Max Humidity, Mean Humidity, Min Humidity, Max Sea Level PressureIn, Mean Sea Level PressureIn, Min Sea Level PressureIn, Max VisibilityMiles, Mean VisibilityMiles, Min VisibilityMiles, Max Wind SpeedMPH, Mean Wind SpeedMPH, Max Gust SpeedMPH,PrecipitationIn, CloudCover, Events, WindDirDegrees
2013-4-1,60,46,31,27,21,15,79,43,22,30.24,30.13,29.98,10,10,10,22,7,30,0.00,4,,120
2013-4-2,50,40,29,32,28,25,95,73,39,30.18,30.11,30.01,10,9,5,21,8,30,0.00,5,,122
2013-4-3,58,44,29,33,23,7,96,57,14,30.31,30.21,30.16,10,8,1,17,5,29,0.00,3,,331
2013-4-4,65,46,27,21,16,7,69,35,11,30.36,30.28,30.20,10,10,10,18,6,26,0.00,0,,244
2013-4-5,66,53,40,37,20,9,76,33,11,30.23,30.09,29.98,10,10,10,31,7,44,0.00,2,,262
2013-4-6,64,49,34,35,16,3,77,31,9,30.11,30.05,30.00,10,10,10,24,11,34,0.00,1,,273
2013-4-7,57,48,40,29,24,18,54,39,21,30.07,29.97,29.89,10,10,10,32,14,46,0.00,2,,260
2013-4-8,62,48,34,33,25,11,75,50,13,29.92,29.71,29.54,10,10,4,24,7,34,0.00,3,,242
2013-4-9,45,30,14,36,23,11,92,85,60,30.02,29.82,29.62,10,4,0,20,8,30,0.00,8,,89
2013-4-10,41,24,6,24,14,3,92,67,45,30.02,29.96,29.87,10,9,1,21,4,25,0.00,4,,252
2013-4-11,52,38,25,28,20,12,64,47,26,30.01,29.93,29.89,10,10,10,24,9,31,0.00,3,,265
2013-4-12,56,42,27,29,23,13,93,53,20,30.09,30.02,29.99,10,10,10,24,6,34,0.00,3,,238
2013-4-13,61,45,29,37,19,8,82,41,12,30.09,29.85,29.65,10,10,10,29,10,41,0.00,2,,239
2013-4-14,47,40,33,38,26,17,96,62,32,29.80,29.74,29.63,10,8,0,29,12,44,0.00,4,,256
2013-4-15,59,45,31,32,21,8,66,45,22,29.92,29.75,29.66,10,10,10,24,14,37,0.00,6,,117
2013-4-16,48,37,26,27,23,20,79,65,33,29.95,29.86,29.69,10,10,10,38,17,48,0.00,7,,123
2013-4-17,35,28,19,27,24,17,89,78,61,30.04,29.86,29.74,10,9,1,28,14,38,0.00,7,,112
2013-4-18,37,24,12,17,8,-5,92,55,17,30.27,30.10,30.03,10,8,1,16,4,31,0.00,4,,324
2013-4-19,52,36,19,16,10,4,58,34,20,30.28,30.17,30.07,10,10,10,26,11,34,0.00,0,,254
2013-4-20,52,43,34,32,23,16,77,48,28,30.17,30.07,30.02,10,10,7,21,9,25,0.00,4,,282
2013-4-21,59,44,29,31,19,8,85,41,14,30.23,30.18,30.13,10,10,10,22,7,33,0.00,1,,257
2013-4-22,62,44,27,31,24,13,87,45,14,30.15,30.05,29.95,10,10,7,31,16,47,0.00,3,,243
2013-4-23,40,31,22,26,19,15,87,68,43,30.24,30.13,30.06,10,9,1,18,11,25,0.00,5,,116
2013-4-24,52,35,18,19,12,4,88,47,14,30.33,30.25,30.22,10,10,10,18,5,29,0.00,1,,242
2013-4-25,63,46,29,30,19,11,63,38,13,30.32,30.18,30.07,10,10,10,21,7,28,0.00,2,,263
2013-4-26,65,50,35,32,20,6,69,36,10,30.45,30.29,30.15,10,10,10,20,6,24,0.00,3,,329
2013-4-27,67,50,33,32,16,2,72,33,8,30.44,30.36,30.25,10,10,10,15,7,23,0.00,0,,313
2013-4-28,72,52,33,20,15,11,53,25,9,30.31,30.20,30.09,10,10,10,17,6,25,0.00,0,,283
2013-4-29,74,56,39,26,17,9,50,23,8,30.14,30.03,29.93,10,10,10,25,9,34,0.00,0,,264
2013-4-30,74,64,52,33,16,8,48,17,9,29.94,29.90,29.86,10,10,10,30,13,39,0.00,1,,218